カタログに戻る

STARLINK-33761

運用中通信VLEO
NORAD 63455·PAYLOAD·🇺🇸 United States

打ち上げ Apr 4, 2025 から Vandenberg Space Force Base

Loading…

次のパス (今後24時間)

TLE

最新Source: CelesTrak SupGP

元期: Sep 15, 2026, 03:25 UTC

1 63455C 25069Y   26258.14284722  .00061760  00000+0  18238-2 0  2589
2 63455  53.1589 334.6967 0001127  84.5309 152.2924 15.34375420    14

AllMySatでSTARLINK-33761をリアルタイム追跡

Download on the App Store